Location: Central Coast NSW, Australia
(33.2407°S, 151.4316°E)
Time: 20:05:29
(UTC+11:00)

OTV 5 (USA 277) - Visible Passes

Search period start: 18 February 2018 00:00
Search period end: 28 February 2018 00:00
Orbit: 404 x 417 km, 43.0° (Epoch: 07 September)

Date Brightness Start Highest point End Pass type
(mag) Time Alt. Az. Time Alt. Az. Time Alt. Az.
18 Feb ? 20:46:54 10° WSW 20:49:48 25° SSW 20:52:41 10° SE visible
18 Feb ? 22:25:44 10° SW 22:26:22 12° SSW 22:26:22 12° SSW visible
19 Feb ? 21:34:23 10° SW 21:36:36 16° S 21:37:40 14° SSE visible
20 Feb ? 20:42:56 10° SW 20:45:19 17° S 20:47:43 10° SE visible
20 Feb ? 22:21:04 10° SW 22:21:38 12° SSW 22:21:38 12° SSW visible
21 Feb ? 21:29:58 10° SW 21:32:13 16° S 21:32:48 16° SSE visible
22 Feb ? 20:38:45 10° SW 20:40:56 16° S 20:43:06 10° SE visible
22 Feb ? 22:16:05 10° SW 22:16:41 13° SW 22:16:41 13° SW visible
23 Feb ? 21:25:06 10° SW 21:27:47 21° SSE 21:27:49 21° SSE visible
24 Feb ? 20:34:05 10° SW 20:36:32 18° S 20:38:58 10° SE visible
24 Feb ? 22:11:01 10° SW 22:11:42 15° SW 22:11:42 15° SW visible
25 Feb ? 21:20:03 10° SW 21:22:52 34° S 21:22:52 34° S visible
26 Feb ? 20:29:05 10° SW 20:32:03 26° SSE 20:34:05 15° ESE visible
26 Feb ? 22:06:11 10° WSW 22:06:49 15° WSW 22:06:49 15° WSW visible
27 Feb ? 21:15:04 10° WSW 21:18:05 66° SW 21:18:05 66° SW visible
